FW3914 Weather Reports


Display with metric or nautical units.
time (UTC)temp
F
wind
direction
speed
MPH
gust
MPH
rain 1hr
in
rain 24hr
in
rain mn
in
humidity
%
barometer
mb
20260502220321 81 262 1.0 4.0 0.00 0.00 0.00 30 1018.9
20260502215818 82 5 4.0 7.0 0.00 0.00 0.00 30 1018.7
20260502215315 81 287 2.0 3.0 0.00 0.00 0.00 31 1019.1
20260502214812 78 10 3.0 5.0 0.00 0.00 0.00 33 1018.9
20260502214308 78 26 5.0 7.0 0.00 0.00 0.00 33 1018.8
20260502213806 80 262 2.0 4.0 0.00 0.00 0.00 33 1019.0
20260502213302 80 239 4.0 5.0 0.00 0.00 0.00 32 1018.9
20260502212802 79 358 0.0 3.0 0.00 0.00 0.00 31 1019.2
20260502212300 77 301 2.0 6.0 0.00 0.00 0.00 34 1019.1
20260502211755 79 319 2.0 7.0 0.00 0.00 0.00 33 1019.3
20260502211252 79 243 3.0 5.0 0.00 0.00 0.00 32 1019.2
20260502210750 79 356 1.0 7.0 0.00 0.00 0.00 31 1019.4
20260502210247 79 247 0.0 5.0 0.00 0.00 0.00 32 1019.4
20260502205744 79 26 3.0 5.0 0.00 0.00 0.00 31 1019.6
20260502205240 80 347 2.0 7.0 0.00 0.00 0.00 31 1019.5
20260502204737 79 318 3.0 7.0 0.00 0.00 0.00 32 1019.6
20260502204235 78 335 3.0 7.0 0.00 0.00 0.00 33 1019.8
20260502203732 78 287 0.0 6.0 0.00 0.00 0.00 33 1019.6
20260502203230 79 218 2.0 7.0 0.00 0.00 0.00 33 1019.5
20260502202724 78 242 0.0 4.0 0.00 0.00 0.00 33 1019.8
20260502202222 77 169 2.0 6.0 0.00 0.00 0.00 33 1019.9
20260502201719 77 9 3.0 6.0 0.00 0.00 0.00 33 1020.0
20260502201216 78 22 2.0 6.0 0.00 0.00 0.00 31 1020.1
20260502200712 78 272 3.0 5.0 0.00 0.00 0.00 38 1020.0
20260502200208 79 203 4.0 6.0 0.00 0.00 0.00 32 1020.2
20260502195707 78 69 5.0 8.0 0.00 0.00 0.00 32 1020.3
20260502195203 77 141 2.0 4.0 0.00 0.00 0.00 32 1020.2
20260502194700 79 86 0.0 4.0 0.00 0.00 0.00 31 1020.1
20260502194156 78 33 4.0 7.0 0.00 0.00 0.00 33 1020.1
20260502193653 76 34 5.0 7.0 0.00 0.00 0.00 34 1020.3
20260502193150 77 285 4.0 5.0 0.00 0.00 0.00 32 1020.4
20260502192645 77 347 0.0 7.0 0.00 0.00 0.00 35 1020.5
20260502192143 76 297 0.0 5.0 0.00 0.00 0.00 36 1020.5
20260502191640 77 258 2.0 5.0 0.00 0.00 0.00 44 1020.6
20260502191137 77 40 2.0 5.0 0.00 0.00 0.00 33 1020.6
20260502190634 77 243 5.0 7.0 0.00 0.00 0.00 32 1020.5
20260502190132 77 303 2.0 5.0 0.00 0.00 0.00 36 1020.6
20260502185626 78 297 1.0 7.0 0.00 0.00 0.00 33 1020.6
20260502185124 77 287 2.0 5.0 0.00 0.00 0.00 34 1020.9
20260502184620 77 196 3.0 6.0 0.00 0.00 0.00 33 1021.2
20260502184115 76 174 3.0 3.0 0.00 0.00 0.00 35 1020.7
20260502183612 76 244 2.0 6.0 0.00 0.00 0.00 38 1021.1
20260502183108 75 340 1.0 5.0 0.00 0.00 0.00 34 1021.2
20260502182603 75 338 2.0 6.0 0.00 0.00 0.00 34 1021.2
20260502182059 75 263 2.0 5.0 0.00 0.00 0.00 36 1021.2
20260502181557 76 232 3.0 8.0 0.00 0.00 0.00 36 1021.3
20260502181056 76 251 3.0 8.0 0.00 0.00 0.00 34 1021.1
20260502180553 76 227 2.0 10.0 0.00 0.00 0.00 32 1021.4
20260502170512 73 240 2.0 7.0 0.00 0.00 0.00 35 1022.4
20260502163955 73 242 4.0 7.0 0.00 0.00 0.00 35 1022.3
20260502163451 73 256 3.0 5.0 0.00 0.00 0.00 36 1022.1
20260502162949 73 244 2.0 5.0 0.00 0.00 0.00 35 1022.1
20260502162445 73 239 2.0 4.0 0.00 0.00 0.00 34 1022.2
20260502161942 73 27 2.0 5.0 0.00 0.00 0.00 35 1022.2
20260502161439 74 236 3.0 6.0 0.00 0.00 0.00 35 1022.2
20260502160937 74 354 2.0 5.0 0.00 0.00 0.00 36 1022.2
20260502160435 73 135 0.0 3.0 0.00 0.00 0.00 38 1022.3
20260502151918 70 338 2.0 6.0 0.00 0.00 0.00 41 1022.0
20260502151415 70 196 2.0 4.0 0.00 0.00 0.00 44 1022.1
20260502150912 69 244 3.0 4.0 0.00 0.00 0.00 44 1021.9
20260502150408 68 169 1.0 4.0 0.00 0.00 0.00 43 1021.9
20260502130254 59 218 0.0 3.0 0.00 0.00 0.00 73 1021.0
20260502123740 55 217 0.0 2.0 0.00 0.00 0.00 84 1020.8
20260502123237 54 185 0.0 2.0 0.00 0.00 0.00 88 1020.8
20260502122734 53 161 0.0 2.0 0.00 0.00 0.00 90 1020.5
20260502122230 52 221 1.0 2.0 0.00 0.00 0.00 91 1020.4
20260502121728 51 122 0.0 2.0 0.00 0.00 0.00 94 1020.4
20260502121226 50 224 1.0 2.0 0.00 0.00 0.00 94 1020.2
20260502120722 50 241 0.0 2.0 0.00 0.00 0.00 95 1020.1
20260502120219 50 200 0.0 2.0 0.00 0.00 0.00 94 1020.2
20260502115717 50 211 0.0 2.0 0.00 0.00 0.00 95 1020.1
20260502115213 50 207 0.0 2.0 0.00 0.00 0.00 95 1019.9
20260502114709 50 208 0.0 2.0 0.00 0.00 0.00 94 1019.8
20260502114207 50 184 0.0 2.0 0.00 0.00 0.00 94 1019.7
20260502113703 50 197 0.0 2.0 0.00 0.00 0.00 94 1019.8
20260502113201 51 255 0.0 3.0 0.00 0.00 0.00 93 1019.6
20260502112659 51 239 0.0 3.0 0.00 0.00 0.00 93 1019.6
20260502112156 51 326 0.0 2.0 0.00 0.00 0.00 93 1019.4
20260502111654 51 226 0.0 2.0 0.00 0.00 0.00 93 1019.6
20260502111151 51 218 2.0 2.0 0.00 0.00 0.00 93 1019.7
20260502110649 51 144 0.0 2.0 0.00 0.00 0.00 92 1019.5
20260502110146 52 170 0.0 3.0 0.00 0.00 0.00 92 1019.4
20260502105643 52 194 0.0 2.0 0.00 0.00 0.00 92 1019.4
20260502105140 52 204 1.0 3.0 0.00 0.00 0.00 92 1019.4
20260502104637 51 214 1.0 2.0 0.00 0.00 0.00 93 1019.6
20260502104135 51 246 0.0 2.0 0.00 0.00 0.00 93 1019.1
20260502103632 51 226 0.0 2.0 0.00 0.00 0.00 93 1018.8
20260502103130 51 212 0.0 2.0 0.00 0.00 0.00 93 1018.9
20260502102627 51 164 0.0 1.0 0.00 0.00 0.00 92 1019.0
20260502102123 51 202 0.0 2.0 0.00 0.00 0.00 92 1019.1
20260502101621 51 251 0.0 2.0 0.00 0.00 0.00 92 1019.1
20260502101120 51 182 0.0 2.0 0.00 0.00 0.00 92 1018.9
20260502100618 51 232 1.0 2.0 0.00 0.00 0.00 92 1018.9
20260502100116 51 177 0.0 2.0 0.00 0.00 0.00 92 1019.0
20260502091044 52 185 0.0 3.0 0.00 0.00 0.00 92 1018.9
20260502090541 52 194 1.0 3.0 0.00 0.00 0.00 92 1019.0
20260502071435 53 189 1.0 3.0 0.00 0.00 0.00 90 1018.6
20260502070933 53 214 2.0 3.0 0.00 0.00 0.00 90 1019.1
20260502070431 53 218 0.0 2.0 0.00 0.00 0.00 90 1018.9
20260502065930 53 206 0.0 2.0 0.00 0.00 0.00 89 1019.0
20260502065428 54 217 2.0 2.0 0.00 0.00 0.00 90 1018.9
20260502064926 54 207 1.0 3.0 0.00 0.00 0.00 90 1019.3
20260502064423 54 237 0.0 3.0 0.00 0.00 0.00 90 1019.3
20260502063920 54 215 1.0 3.0 0.00 0.00 0.00 89 1019.0
20260502063418 54 225 0.0 2.0 0.00 0.00 0.00 89 1019.2
20260502062915 54 233 0.0 2.0 0.00 0.00 0.00 89 1018.9
20260502062412 54 214 0.0 2.0 0.00 0.00 0.00 88 1018.9
20260502061911 54 195 1.0 2.0 0.00 0.00 0.00 89 1019.0
20260502061409 54 220 1.0 2.0 0.00 0.00 0.00 89 1019.0
20260502060904 53 203 0.0 2.0 0.00 0.00 0.00 90 1018.9
20260502060359 53 227 0.0 2.0 0.00 0.00 0.00 91 1019.1
20260502055857 53 191 1.0 2.0 0.00 0.00 0.00 91 1018.9
20260502055354 53 233 0.0 1.0 0.00 0.00 0.00 91 1018.9
20260502054854 54 164 0.0 2.0 0.00 0.00 0.00 90 1019.0
20260502054351 54 322 0.0 2.0 0.00 0.00 0.00 90 1019.1
20260502053848 55 262 0.0 2.0 0.00 0.00 0.00 90 1018.8
20260502053345 55 232 0.0 2.0 0.00 0.00 0.00 89 1018.8
20260502052843 55 205 0.0 2.0 0.00 0.00 0.00 88 1019.0
20260502052341 55 203 1.0 3.0 0.00 0.00 0.00 88 1018.9
20260502051838 55 229 1.0 3.0 0.00 0.00 0.00 89 1018.8
20260502051337 56 224 1.0 2.0 0.00 0.00 0.00 89 1018.9
20260502050833 56 205 0.0 2.0 0.00 0.00 0.00 88 1018.9
20260502050330 56 214 1.0 2.0 0.00 0.00 0.00 87 1019.3
20260502045827 57 224 1.0 2.0 0.00 0.02 0.02 86 1019.1
20260502045323 56 212 0.0 2.0 0.00 0.02 0.02 86 1019.0
20260502044821 57 197 0.0 2.0 0.00 0.02 0.02 87 1018.7
20260502044316 57 227 0.0 2.0 0.00 0.02 0.02 86 1018.8
20260502043814 57 232 0.0 2.0 0.00 0.02 0.02 86 1018.8
20260502043311 56 215 0.0 2.0 0.00 0.02 0.02 87 1018.8
20260502042811 57 222 0.0 2.0 0.00 0.02 0.02 87 1018.9
20260502042308 56 218 0.0 2.0 0.00 0.02 0.02 87 1018.8
20260502041806 56 294 0.0 2.0 0.00 0.02 0.02 86 1018.6
20260502041303 57 186 0.0 1.0 0.00 0.02 0.02 85 1018.5
20260502040800 57 214 1.0 1.0 0.00 0.02 0.02 84 1018.6
20260502040257 57 214 0.0 1.0 0.00 0.02 0.02 84 1018.8
20260502035753 57 217 0.0 1.0 0.00 0.02 0.02 84 1018.8
20260502035249 58 229 0.0 2.0 0.00 0.02 0.02 83 1018.6
20260502034747 58 212 1.0 2.0 0.00 0.02 0.02 82 1018.7
20260502034245 58 204 1.0 2.0 0.00 0.02 0.02 81 1018.6
20260502033743 58 193 0.0 2.0 0.00 0.02 0.02 80 1019.0
20260502033240 58 224 0.0 2.0 0.00 0.02 0.02 80 1018.7
20260502032737 58 211 0.0 1.0 0.00 0.02 0.02 80 1018.6
20260502032233 59 154 0.0 1.0 0.00 0.02 0.02 79 1018.8
20260502031732 59 204 0.0 2.0 0.00 0.02 0.02 79 1018.7
20260502031229 59 183 0.0 2.0 0.00 0.02 0.02 78 1018.7
20260502030727 59 208 0.0 2.0 0.00 0.02 0.02 78 1018.2
20260502030225 60 345 0.0 2.0 0.00 0.02 0.02 77 1018.3
20260502025722 60 205 0.0 1.0 0.00 0.02 0.02 77 1018.6
20260502025220 60 205 0.0 1.0 0.00 0.02 0.02 77 1018.4
20260502024717 60 205 0.0 2.0 0.00 0.02 0.02 77 1018.5
20260502024215 60 207 1.0 2.0 0.00 0.02 0.02 76 1018.4
20260502023713 60 181 0.0 2.0 0.00 0.02 0.02 77 1018.5
20260502023210 60 166 0.0 2.0 0.00 0.02 0.02 78 1018.3
20260502022708 60 157 1.0 2.0 0.00 0.02 0.02 78 1018.2
20260502022204 60 205 0.0 1.0 0.00 0.02 0.02 78 1018.2
20260502021701 60 235 1.0 2.0 0.00 0.02 0.02 77 1018.1
20260502021158 61 217 0.0 2.0 0.00 0.02 0.02 76 1018.1
20260502020655 60 217 0.0 1.0 0.00 0.02 0.02 76 1018.0
20260502020152 60 203 0.0 1.0 0.00 0.02 0.02 75 1017.7
20260502015650 61 209 0.0 1.0 0.00 0.02 0.02 75 1017.6
20260502015146 61 217 0.0 1.0 0.00 0.02 0.02 75 1017.6
20260502014644 61 6 0.0 1.0 0.00 0.02 0.02 75 1017.2
20260502014141 61 129 0.0 2.0 0.00 0.02 0.02 74 1017.0
20260502013637 61 217 0.0 1.0 0.00 0.02 0.02 74 1017.2
20260502013132 61 195 0.0 2.0 0.00 0.02 0.02 73 1017.1
20260502012630 61 235 0.0 1.0 0.00 0.02 0.02 73 1016.7
20260502012128 61 196 0.0 1.0 0.00 0.02 0.02 73 1016.8
20260502011624 61 209 0.0 2.0 0.00 0.02 0.02 73 1016.9
20260502011120 62 260 0.0 2.0 0.00 0.02 0.02 73 1016.9
20260502010618 62 174 0.0 2.0 0.00 0.02 0.02 72 1016.5
20260502010114 62 275 0.0 2.0 0.00 0.02 0.02 72 1016.7
20260502005612 62 333 0.0 2.0 0.00 0.02 0.02 71 1016.5
20260502005110 62 224 0.0 2.0 0.00 0.02 0.02 71 1016.5
20260502004605 62 160 0.0 2.0 0.00 0.02 0.02 71 1016.5
20260502004102 62 183 0.0 2.0 0.00 0.02 0.02 70 1016.5
20260502003600 62 326 0.0 2.0 0.00 0.02 0.02 69 1016.6
20260502003056 63 160 0.0 2.0 0.00 0.02 0.02 67 1016.6
20260502002553 63 255 0.0 1.0 0.00 0.02 0.02 67 1016.2
20260502002050 63 37 0.0 3.0 0.00 0.02 0.02 66 1016.2
20260502001548 63 217 0.0 2.0 0.00 0.02 0.02 66 1016.1
20260502001045 63 242 0.0 1.0 0.00 0.02 0.02 66 1016.0
20260502000543 63 22 0.0 2.0 0.00 0.02 0.02 66 1016.1
20260502000040 63 91 1.0 4.0 0.00 0.02 0.02 65 1015.9
20260501235535 63 71 1.0 2.0 0.00 0.02 0.02 65 1015.7
20260501235032 63 38 3.0 4.0 0.00 0.02 0.02 65 1015.6
20260501234527 64 18 2.0 5.0 0.00 0.02 0.02 64 1015.8
20260501234026 64 237 0.0 3.0 0.00 0.02 0.02 66 1015.6
20260501233523 64 85 0.0 2.0 0.00 0.02 0.02 65 1015.5
20260501233020 64 49 3.0 4.0 0.00 0.02 0.02 64 1015.5
20260501232516 64 32 1.0 5.0 0.00 0.02 0.02 63 1015.1
20260501232014 64 25 2.0 3.0 0.00 0.02 0.02 63 1015.3
20260501231512 64 53 3.0 6.0 0.00 0.02 0.02 63 1015.5
20260501231010 64 53 1.0 5.0 0.00 0.02 0.02 62 1015.2
20260501230508 64 31 4.0 4.0 0.00 0.02 0.02 63 1015.1
20260501230005 64 30 0.0 4.0 0.00 0.02 0.02 63 1015.2
20260501225503 64 43 2.0 4.0 0.00 0.02 0.02 62 1015.2
20260501224958 64 302 1.0 4.0 0.00 0.02 0.02 61 1015.0
20260501224457 64 351 0.0 5.0 0.00 0.02 0.02 62 1015.0
20260501223953 64 40 3.0 4.0 0.00 0.02 0.02 61 1015.0
20260501223449 65 17 2.0 7.0 0.00 0.02 0.02 61 1015.2
20260501222945 65 269 2.0 4.0 0.00 0.02 0.02 62 1015.0
20260501222442 64 27 2.0 6.0 0.00 0.02 0.02 62 1015.0
20260501221938 65 38 4.0 7.0 0.00 0.02 0.02 60 1015.1
20260501221436 65 23 0.0 4.0 0.00 0.02 0.02 61 1015.1
20260501220934 65 347 1.0 5.0 0.00 0.02 0.02 61 1015.2
20260501220431 64 47 2.0 4.0 0.00 0.02 0.02 61 1015.2